Location: Milton
(43.5183°N, 79.8775°W)
Time: 15:16:48
(UTC+00:00)

UNISAT 6 - Pass Details

Date: 22 March 2023
Orbit: 599 x 680 km, 97.7° (Epoch: 02 June)

Event Time Altitude Azimuth Distance (km) Brightness Sun altitude
Rises 23:58:36 0° 1° (N) 3,022 ? -5.5°
Reaches altitude 10° 00:01:07 10° 349° (NNW) 2,114 ? -5.9°
Maximum altitude 00:04:55 26° 293° (WNW) 1,329 ? -6.6°
Drops below altitude 10° 00:08:46 10° 237° (WSW) 2,121 ? -7.3°
Sets 00:11:17 0° 225° (SW) 3,033 ? -7.8°
